Saint Simons Island, GA

12:27 AM EST on December 08, 2019 (GMT -0500)
McKinnon

Weather History for KSSI - November, 2019

Change the Weather History Date:

Wednesday, November 20, 2019

  Actual Average Record
Temperature  
Mean Temperature 58 °F 61 °F  
Max Temperature 68 °F 69 °F 79 °F (1970)
Min Temperature 47 °F 52 °F 30 °F (2014)
Degree Days  
Heating Degree Days 7 6  
Month to date heating degree days 127 81  
Since 1 July heating degree days 127 111  
Cooling Degree Days 0 1  
Month to date cooling degree days 25 43  
Year to date cooling degree days 3370 2604  
Growing Degree Days 8 (Base 50)    
Moisture  
Dew Point 44 °F    
Average Humidity 63    
Maximum Humidity 86    
Minimum Humidity 39    
Precipitation  
Precipitation 0.00 in 0.06 in 2.03 in (1983)
Month to date precipitation 3.51 1.41  
Year to date precipitation 35.97 41.74  
Snow  
Snow 0.00 in - 0.00 in ()
Month to date snowfall 0.0  
Since 1 July snowfall 0.0  
Since 1 September snowfall 0.0  
Snow Depth 0.00 in    
Sea Level Pressure  
Sea Level Pressure 30.13 in    
Wind  
Wind Speed 6 mph (NW)    
Max Wind Speed 15 mph    
Max Gust Speed 20 mph    
Visibility 10 miles    
Events      
T = Trace of Precipitation, MM = Missing Value Source: NWS Daily Summary

Daily Weather History Graph

Daily Weather History Graph

Search for Another Location

Airport or City:

Astronomy

Nov. 20, 2019 Rise Set
Actual Time 6:56 AM EST 5:25 PM EST
Civil Twilight 6:30 AM EST 5:51 PM EST
Nautical Twilight 6:01 AM EST 6:20 PM EST
Astronomical Twilight 5:32 AM EST 6:49 PM EST
Moon 12:15 AM EST (11/20) 1:48 PM EST (11/20)
Length of Visible Light 11h 20m
Length of Day
10h 28m
Last Quarter, 41% of the Moon is Illuminated
Nov 20
Last Quarter
Nov 26
New
Dec 4
First Quarter
Dec 12
Full
Dec 18
Last Quarter

Hourly Weather History & Observations

Time (EST) Temp. Dew Point Humidity Pressure Visibility Wind Dir Wind Speed Gust Speed Precip Events Conditions
12:53 AM 51.1 °F 43.0 °F 74% 30.00 in 10.0 mi WSW 6.9 mph - N/A   Clear
1:53 AM 51.1 °F 43.0 °F 74% 30.00 in 10.0 mi WSW 5.8 mph - N/A   Clear
2:53 AM 53.1 °F 44.1 °F 71% 30.01 in 10.0 mi WSW 6.9 mph - N/A   Clear
3:53 AM 52.0 °F 44.1 °F 74% 30.03 in 10.0 mi West 8.1 mph - N/A   Clear
4:53 AM 52.0 °F 43.0 °F 71% 30.04 in 10.0 mi West 6.9 mph - N/A   Clear
5:53 AM 50.0 °F 42.1 °F 74% 30.06 in 10.0 mi West 5.8 mph - N/A   Clear
6:53 AM 50.0 °F 42.1 °F 74% 30.09 in 10.0 mi WNW 5.8 mph - N/A   Clear
7:53 AM 51.1 °F 42.1 °F 71% 30.11 in 10.0 mi WNW 4.6 mph - N/A   Clear
9:53 AM 59.0 °F 44.1 °F 58% 30.15 in 10.0 mi NW 6.9 mph - N/A   Clear
10:53 AM 63.0 °F 44.1 °F 50% 30.15 in 10.0 mi North 10.4 mph - N/A   Clear
11:53 AM 66.0 °F 44.1 °F 45% 30.15 in 10.0 mi North 9.2 mph - N/A   Clear
12:53 PM 68.0 °F 43.0 °F 40% 30.13 in 10.0 mi North 9.2 mph - N/A   Clear
2:53 PM 64.0 °F 46.0 °F 52% 30.12 in 10.0 mi ENE 10.4 mph - N/A   Clear
3:53 PM 63.0 °F 45.0 °F 52% 30.14 in 10.0 mi ENE 8.1 mph - N/A   Clear
4:53 PM 61.0 °F 45.0 °F 56% 30.16 in 10.0 mi ENE 6.9 mph - N/A   Clear
5:53 PM 57.0 °F 46.0 °F 67% 30.18 in 10.0 mi ENE 4.6 mph - N/A   Clear
6:53 PM 54.0 °F 46.0 °F 75% 30.20 in 10.0 mi Calm Calm - N/A   Clear
7:53 PM 53.1 °F 46.0 °F 77% 30.21 in 10.0 mi North 3.5 mph - N/A   Clear
8:53 PM 51.1 °F 45.0 °F 80% 30.22 in 10.0 mi Calm Calm - N/A   Clear
9:53 PM 48.9 °F 45.0 °F 86% 30.24 in 10.0 mi Calm Calm - N/A   Clear
10:53 PM 48.9 °F 45.0 °F 86% 30.24 in 10.0 mi Calm Calm - N/A   Clear
11:53 PM 48.0 °F 44.1 °F 86% 30.24 in 10.0 mi Calm Calm - N/A   Clear